Back to catalog

TEVEL2-9

AliveAmateur RadioSSO
NORAD 63237·PAYLOAD·🇮🇱 Israel

Launched Mar 15, 2025 from Vandenberg Space Force Base

Loading…

Next Passes (next 24 hours)

TLE

FreshSource: Space-Track

Epoch: Sep 14, 2026, 10:33 UTC

1 63237U 25052AD  26257.44020036  .00013153  00000-0  39658-3 0  9993
2 63237  97.3795 152.6908 0006082 163.0456 197.0992 15.34415042 83709

Track TEVEL2-9 in real time with AllMySat

Download on the App Store